Temp
47 42 38 43 46 51 51 48 48 48 52 50 50 51 52 56 51 52 53 54 53 56 61 62 63 64 63 64 65 65 65 64 64 62 63 63 63 64 64 65 66 66 66 65
42 40 46 51 50 47 49 48 45 45 50 51 47 50 51 51 52 54 56 54 54 55 58 60 61 60 61 63 64 64 65 64 65 64 62 65 63 63 64 64 64 65 65 65
41 45 51 49 45 43 48 45 43 45 46 47 47 46 46 52 51 53 55 55 54 56 57 57 58 58 58 59 60 63 64 64 65 64 61 63 62 62 62 62 62 63 64 64
44 52 48 44 44 46 43 51 49 45 45 40 44 36 45 49 50 51 54 54 54 54 53 54 56 54 54 55 55 58 61 63 64 63 63 61 60 60 61 62 62 63 63 63
38 45 44 40 45 50 47 50 48 45 42 41 37 37 42 42 46 49 53 52 52 52 53 53 53 53 52 53 53 55 58 63 63 63 63 65 62 62 62 62 62 62 62 62
44 50 49 45 50 52 52 48 45 43 41 33 38 39 39 41 47 51 49 51 52 49 49 50 50 51 50 49 50 52 56 58 62 63 65 64 62 60 60 59 59 59 58 57
39 42 48 53 47 50 51 47 32 32 31 33 32 34 44 47 49 52 54 52 48 48 47 47 49 49 49 48 49 51 53 54 60 61 62 61 61 61 59 58 57 56 54 53
32 32 45 50 49 43 45 46 31 27 26 28 33 32 42 45 47 48 52 50 48 47 47 47 48 47 48 48 49 50 51 51 53 56 58 59 58 57 56 54 53 52 51 50
38 38 45 48 49 51 44 43 44 32 18 27 31 37 46 43 42 43 45 48 46 45 45 46 46 46 47 47 48 49 49 48 49 50 52 55 54 54 52 50 50 48 45 46
46 36 42 46 47 48 46 50 38 35 24 22 28 30 38 40 44 43 43 46 43 44 44 44 44 45 45 45 45 46 46 46 46 47 49 49 49 49 46 45 43 43 43 43
47 43 36 43 42 42 42 40 40 41 34 27 22 31 42 47 49 45 46 45 43 43 43 43 43 44 44 43 43 43 44 45 45 46 46 45 43 43 43 42 41 41 41 41
46 40 33 37 43 43 41 44 44 37 32 31 30 35 43 44 46 46 43 45 44 44 42 42 42 42 42 42 43 43 42 43 43 44 43 42 42 41 41 39 39 40 39 39
46 36 28 33 40 40 40 43 44 41 35 31 29 34 43 41 42 45 46 44 44 43 42 42 41 41 41 41 41 41 41 41 42 43 42 41 40 40 38 38 38 38 38 37
51 39 38 34 37 40 36 40 41 43 33 32 33 39 41 42 42 42 44 45 44 45 44 42 40 41 40 40 41 41 40 42 41 41 41 38 37 37 37 37 37 36 36 36
48 35 39 45 45 45 41 45 41 43 48 42 45 42 50 47 44 45 44 43 43 43 43 43 43 42 40 40 41 42 41 41 41 40 38 37 36 36 35 34 33 33 33 34
45 33 39 34 39 42 40 43 42 44 41 42 39 39 47 44 45 43 45 45 45 44 44 45 45 43 43 43 42 42 41 39 39 38 36 35 34 33 32 32 32 32 32 31
41 34 30 27 34 37 31 37 42 45 41 46 39 50 45 42 45 45 44 46 46 47 46 46 46 45 45 45 44 42 40 37 35 34 33 33 32 32 32 32 32 32 31 31
39 36 30 25 28 24 37 43 47 46 48 46 44 46 48 49 51 49 50 48 49 49 48 48 48 47 46 44 43 40 36 35 34 33 32 31 31 30 30 30 30 30 30 29
44 38 28 27 21 32 37 41 39 39 43 47 49 53 47 45 46 46 50 52 52 52 52 51 50 49 46 43 40 36 34 34 33 32 31 31 30 27 27 26 26 28 26 25
41 44 34 25 24 24 37 43 46 48 38 47 49 48 45 46 43 53 50 52 52 53 52 50 47 46 43 40 39 36 33 33 32 32 32 30 28 25 25 26 24 25 23 25
33 32 32 28 24 29 37 40 47 34 39 40 47 48 45 48 56 56 51 51 52 49 48 47 45 42 42 39 37 35 33 33 31 29 27 25 25 24 24 23 22 19 17 20
33 30 29 27 24 27 38 39 41 46 39 42 41 45 45 49 44 43 45 44 41 40 39 41 41 40 38 36 37 34 32 29 26 25 23 21 19 23 22 19 18 15 11 11
29 37 33 37 36 38 36 37 39 40 41 38 39 40 41 42 42 37 40 38 38 38 39 40 40 35 35 36 37 33 26 26 23 21 18 17 19 20 20 18 19 15 9 11
30 29 33 35 31 33 34 36 37 38 37 39 39 37 38 40 39 37 34 34 34 34 35 35 33 32 30 31 32 31 25 23 21 19 19 19 20 19 18 20 20 14 11 12
31 32 29 28 29 30 33 34 35 36 37 36 37 36 37 37 36 35 33 31 31 31 29 32 33 31 27 25 23 23 22 22 21 21 21 20 19 18 16 17 15 17 15 16
32 32 31 29 35 35 36 35 36 35 35 35 34 35 34 34 34 32 30 30 29 28 28 28 27 25 22 21 20 19 21 23 22 20 19 18 17 16 15 13 12 20 23 24
MSLP
1019.72 1019.87 1019.07 1018.66 1019.30 1018.20 1017.05 1016.74 1016.77 1016.58 1016.30 1016.44 1016.78 1016.88 1016.80 1017.18 1018.01 1018.42 1018.84 1018.88 1018.90 1018.77 1018.34 1018.41 1018.64 1019.00 1019.36 1019.78 1020.24 1020.61 1021.24 1021.80 1022.32 1022.88 1023.10 1023.57 1023.70 1023.93 1024.12 1024.28 1024.42 1024.68 1024.87 1025.09
1019.65 1018.12 1018.10 1018.69 1018.99 1018.37 1017.48 1016.91 1016.99 1017.17 1016.81 1016.72 1017.18 1017.26 1017.07 1017.24 1017.35 1017.44 1017.96 1018.30 1018.24 1018.24 1018.35 1018.31 1018.35 1018.69 1019.01 1019.34 1019.85 1020.33 1020.71 1021.29 1021.80 1022.24 1022.67 1023.06 1023.46 1023.78 1023.86 1024.12 1024.33 1024.44 1024.64 1024.85
1017.48 1017.31 1018.49 1018.56 1018.95 1018.76 1017.51 1017.01 1016.94 1017.06 1017.23 1017.34 1017.49 1017.86 1017.42 1017.01 1017.14 1017.19 1017.37 1017.53 1017.81 1017.79 1018.04 1018.30 1018.34 1018.60 1018.76 1019.15 1019.59 1019.99 1020.35 1020.83 1021.41 1021.88 1022.45 1022.85 1023.46 1023.78 1024.07 1024.16 1024.33 1024.45 1024.61 1024.71
1018.13 1017.68 1017.55 1018.44 1018.76 1018.69 1017.55 1016.55 1016.70 1017.15 1017.51 1017.88 1017.80 1017.76 1017.14 1016.91 1016.89 1017.04 1017.17 1017.32 1017.47 1017.72 1018.02 1018.32 1018.53 1018.92 1019.04 1019.31 1019.52 1019.76 1020.23 1020.63 1020.99 1021.32 1022.15 1022.61 1023.11 1023.47 1023.66 1023.70 1023.74 1023.96 1024.22 1024.52
1018.17 1017.07 1017.03 1017.68 1016.66 1017.41 1016.77 1016.10 1016.64 1017.41 1017.88 1018.20 1018.53 1018.24 1016.69 1016.75 1016.91 1016.77 1016.88 1017.20 1017.48 1017.73 1017.91 1018.52 1018.78 1019.01 1019.30 1019.52 1019.75 1019.85 1020.00 1020.40 1020.80 1021.09 1021.49 1022.04 1022.63 1022.74 1023.21 1023.69 1023.87 1024.01 1024.11 1024.31
1017.71 1017.16 1017.41 1017.01 1017.23 1017.01 1016.47 1016.24 1017.15 1017.97 1018.56 1018.99 1017.96 1018.00 1016.76 1016.42 1015.59 1015.70 1016.32 1016.99 1017.46 1018.12 1018.58 1018.68 1018.95 1019.22 1019.45 1019.80 1019.91 1020.07 1020.07 1020.13 1020.52 1020.95 1021.25 1021.70 1022.25 1022.76 1023.38 1023.87 1024.14 1024.47 1024.74 1025.10
1017.90 1017.16 1016.26 1015.89 1016.61 1016.43 1016.15 1015.92 1017.87 1019.12 1019.35 1018.25 1018.37 1018.38 1016.19 1015.11 1014.91 1015.01 1015.31 1016.52 1017.56 1018.06 1018.92 1019.12 1019.35 1019.64 1019.76 1019.96 1020.00 1020.09 1020.18 1020.09 1020.23 1020.80 1021.25 1021.61 1022.11 1022.71 1023.27 1023.94 1024.56 1025.02 1025.45 1025.82
1016.36 1016.34 1014.60 1014.65 1015.40 1015.18 1015.10 1014.96 1015.95 1017.64 1019.09 1018.80 1018.94 1017.75 1015.40 1014.91 1014.89 1015.10 1015.31 1016.22 1017.67 1018.59 1019.13 1019.42 1019.70 1019.84 1019.93 1019.96 1020.02 1020.04 1020.30 1020.44 1020.52 1020.64 1021.37 1021.83 1022.46 1023.31 1023.61 1024.34 1024.90 1025.56 1025.97 1026.30
1014.01 1014.02 1014.00 1014.05 1014.35 1014.36 1014.68 1014.68 1015.08 1017.30 1019.84 1019.30 1018.30 1016.96 1015.14 1015.05 1015.18 1015.69 1016.09 1016.84 1017.70 1018.73 1019.26 1019.60 1019.87 1020.08 1019.95 1020.13 1020.28 1020.34 1020.49 1020.71 1020.94 1021.30 1021.65 1022.19 1022.78 1023.43 1024.37 1024.99 1025.39 1025.89 1026.54 1026.84
1011.98 1013.65 1014.12 1013.78 1013.99 1013.79 1013.42 1014.00 1014.98 1016.54 1018.60 1018.97 1018.03 1016.79 1015.38 1015.35 1015.49 1016.05 1016.67 1017.02 1017.72 1018.54 1019.24 1019.93 1020.07 1020.40 1020.50 1020.71 1020.81 1021.05 1021.12 1021.25 1021.39 1021.60 1022.13 1022.38 1023.21 1024.46 1025.05 1025.53 1026.03 1026.37 1026.93 1027.18
1011.47 1012.36 1014.58 1014.11 1014.06 1013.60 1013.73 1013.39 1014.37 1015.39 1016.79 1017.23 1017.50 1015.77 1013.83 1014.00 1014.03 1014.85 1015.80 1016.97 1017.74 1018.35 1019.32 1020.09 1020.38 1020.61 1020.67 1021.05 1021.29 1021.65 1021.77 1021.97 1022.31 1022.39 1022.81 1023.29 1024.15 1025.20 1025.84 1026.37 1026.79 1027.05 1027.25 1027.50
1011.41 1012.06 1014.00 1014.15 1013.99 1013.60 1013.22 1013.09 1013.70 1014.85 1016.39 1016.64 1016.10 1014.37 1013.05 1013.52 1014.08 1014.70 1015.69 1016.70 1017.76 1018.39 1019.27 1020.14 1020.52 1020.95 1021.12 1021.25 1021.40 1021.76 1022.16 1022.40 1022.80 1023.18 1023.44 1024.25 1024.96 1025.59 1026.32 1026.85 1027.24 1027.36 1027.54 1027.75
1010.95 1012.19 1013.91 1014.26 1014.14 1013.65 1013.41 1013.30 1013.11 1013.88 1014.69 1015.27 1015.51 1014.01 1013.28 1013.59 1013.88 1014.31 1015.28 1016.58 1017.50 1018.46 1019.32 1020.16 1020.49 1020.91 1021.29 1021.57 1021.84 1022.09 1022.44 1022.77 1023.19 1023.67 1024.01 1024.79 1025.46 1026.05 1026.80 1027.42 1027.79 1027.78 1027.81 1028.01
1010.41 1011.69 1011.82 1012.00 1011.97 1012.88 1013.26 1012.96 1013.06 1013.32 1014.18 1014.20 1013.74 1013.33 1013.05 1013.33 1013.80 1014.48 1014.94 1016.06 1017.16 1018.05 1018.71 1019.46 1020.13 1020.72 1021.23 1021.63 1022.17 1022.57 1022.95 1023.24 1023.69 1024.23 1024.83 1025.46 1025.73 1026.21 1026.59 1027.21 1027.81 1027.85 1027.89 1028.05
1010.27 1011.60 1012.08 1011.80 1012.03 1011.99 1011.83 1012.01 1012.36 1012.54 1012.16 1013.03 1012.48 1013.02 1012.11 1012.26 1012.94 1013.87 1014.61 1015.77 1016.76 1017.67 1018.32 1018.87 1019.70 1020.34 1020.99 1021.64 1022.15 1022.68 1023.20 1023.69 1024.11 1024.64 1025.29 1026.03 1026.19 1026.59 1026.93 1027.37 1027.97 1028.06 1028.12 1028.07
1010.44 1011.39 1011.98 1012.51 1012.09 1011.76 1012.26 1011.93 1011.86 1011.66 1011.81 1011.86 1011.85 1012.12 1011.49 1011.46 1012.66 1013.90 1014.21 1014.96 1015.77 1016.65 1017.32 1018.27 1019.19 1019.92 1020.59 1021.09 1021.72 1022.64 1023.34 1023.92 1024.28 1024.89 1025.49 1026.05 1026.39 1026.95 1027.35 1027.64 1028.15 1028.20 1028.20 1028.29
1010.80 1011.85 1012.78 1013.78 1013.37 1013.01 1012.91 1011.32 1011.11 1011.04 1011.11 1010.80 1010.98 1010.35 1010.87 1011.63 1012.43 1012.85 1013.56 1014.12 1014.54 1015.14 1015.97 1016.97 1017.87 1018.74 1019.66 1020.40 1021.27 1022.24 1023.19 1023.91 1024.48 1025.19 1025.85 1026.32 1026.79 1027.26 1027.50 1027.73 1028.08 1028.29 1028.40 1028.55
1011.06 1012.22 1013.32 1014.41 1014.20 1013.41 1010.76 1009.96 1009.71 1010.09 1009.43 1009.91 1009.83 1010.07 1010.32 1010.69 1010.78 1011.07 1011.77 1012.37 1013.32 1014.15 1015.03 1016.01 1016.81 1017.94 1018.89 1020.00 1021.14 1022.11 1023.22 1023.81 1024.64 1025.41 1025.93 1026.38 1026.94 1027.40 1027.59 1027.81 1028.21 1028.37 1028.39 1028.66
1011.26 1012.59 1013.94 1014.77 1014.71 1012.95 1011.08 1010.28 1010.18 1009.97 1009.13 1009.31 1009.38 1009.61 1009.88 1010.49 1010.88 1010.93 1011.08 1011.73 1012.05 1012.42 1012.77 1013.60 1014.94 1016.69 1018.16 1019.40 1020.68 1021.93 1023.37 1024.05 1024.86 1025.55 1026.03 1026.37 1026.87 1027.38 1027.57 1027.91 1028.19 1028.55 1028.81 1028.89
1012.19 1012.24 1013.55 1014.81 1014.66 1012.72 1010.59 1009.59 1009.01 1009.26 1008.89 1008.06 1008.41 1009.03 1009.89 1010.38 1010.64 1009.51 1009.87 1010.48 1010.97 1011.66 1012.76 1013.75 1015.09 1016.35 1017.71 1019.13 1020.17 1021.62 1022.90 1023.77 1024.61 1025.37 1025.97 1026.54 1027.02 1027.42 1027.73 1028.02 1028.46 1028.77 1028.99 1029.13
1013.05 1013.43 1013.75 1014.74 1014.14 1011.76 1010.21 1009.10 1008.89 1009.79 1007.52 1007.06 1007.76 1008.52 1009.27 1009.64 1008.50 1008.44 1008.92 1009.83 1010.24 1011.12 1012.22 1013.42 1014.67 1015.69 1016.95 1018.64 1019.86 1021.29 1022.60 1023.49 1024.28 1025.40 1026.25 1026.80 1027.10 1027.43 1027.76 1028.22 1028.62 1028.92 1029.18 1029.29
1011.80 1013.03 1013.54 1014.38 1014.09 1011.86 1009.99 1010.22 1009.40 1008.14 1008.08 1008.03 1008.44 1008.35 1008.85 1008.56 1008.84 1009.46 1009.76 1010.03 1010.84 1011.66 1012.60 1013.55 1014.89 1016.22 1017.26 1018.38 1019.68 1021.34 1022.63 1023.55 1024.56 1025.68 1026.63 1027.19 1027.53 1027.96 1028.31 1028.81 1029.10 1029.21 1029.28 1029.72
1011.43 1010.64 1011.67 1012.21 1011.05 1010.39 1009.87 1009.65 1009.14 1009.07 1009.28 1009.32 1009.02 1008.86 1008.97 1009.58 1009.93 1010.46 1010.82 1011.12 1011.65 1012.09 1013.02 1013.92 1014.95 1016.41 1017.58 1018.47 1019.28 1020.93 1022.59 1023.60 1024.86 1025.99 1026.79 1027.33 1027.74 1028.08 1028.52 1028.85 1029.11 1029.42 1029.60 1029.87
1011.36 1011.11 1011.08 1011.28 1011.03 1010.86 1010.49 1010.18 1009.82 1010.03 1010.33 1009.99 1009.70 1009.91 1010.28 1010.57 1010.72 1011.21 1011.58 1012.24 1012.65 1013.14 1013.85 1014.50 1015.44 1016.66 1017.81 1018.85 1019.89 1021.01 1022.60 1023.92 1025.01 1025.95 1026.86 1027.27 1027.61 1028.36 1028.74 1028.80 1029.15 1029.25 1029.43 1028.97
1011.40 1011.17 1011.00 1010.86 1010.61 1010.68 1010.52 1010.16 1010.15 1010.30 1010.29 1010.37 1010.57 1010.97 1011.41 1011.69 1011.91 1012.11 1012.63 1013.14 1013.41 1013.93 1014.59 1015.24 1016.06 1017.24 1018.52 1019.47 1020.59 1021.81 1022.95 1024.06 1025.15 1025.97 1026.71 1027.53 1028.36 1028.65 1028.79 1029.12 1029.16 1028.91 1028.53 1028.22
1011.12 1010.70 1010.76 1010.49 1010.56 1010.56 1010.54 1010.02 1010.05 1010.43 1010.98 1011.29 1011.73 1011.86 1011.98 1012.26 1012.35 1012.81 1013.50 1013.90 1014.29 1014.81 1015.39 1016.05 1016.82 1018.06 1019.32 1020.28 1021.47 1022.55 1023.36 1024.17 1024.95 1026.16 1026.97 1027.64 1028.05 1028.57 1029.25 1029.18 1029.06 1028.77 1028.24 1027.96
Wind_Speed
7 7 18 28 13 11 5 4 5 2 5 5 9 5 9 8 5 8 9 9 10 11 10 9 10 9 9 10 13 14 13 10 8 3 4 3 5 2 2 2 5 5 4 4
6 18 22 19 3 14 6 7 4 2 1 4 5 9 5 6 8 10 12 10 11 7 7 8 8 9 9 12 12 13 14 13 10 7 3 3 3 2 3 4 4 5 5 5
17 5 17 10 5 10 10 5 6 7 3 3 6 7 4 7 5 5 7 7 7 13 11 8 8 9 8 8 9 12 13 14 12 8 4 4 3 2 2 2 2 4 5 5
6 9 23 12 14 10 13 8 7 10 7 5 4 6 7 8 10 7 9 9 9 10 5 5 8 6 6 5 5 7 8 11 11 11 8 7 5 4 3 4 3 4 5 4
6 11 22 21 26 16 10 7 11 7 4 6 3 2 8 3 8 10 12 9 8 8 9 9 7 6 4 5 4 4 6 11 11 12 12 10 7 3 3 3 4 4 2 1
6 5 12 13 18 15 5 6 7 5 4 3 7 8 7 7 10 9 5 9 9 8 7 7 5 4 3 1 3 4 6 8 12 13 13 11 10 7 5 3 4 3 4 4
6 10 6 12 14 5 9 9 3 1 2 9 1 3 10 5 6 7 17 13 9 9 8 7 7 6 4 3 4 5 7 6 10 11 9 9 8 7 8 6 5 5 3 3
10 10 14 9 13 9 12 11 7 8 7 4 4 8 8 4 5 8 6 11 9 8 7 7 7 6 6 5 6 7 7 7 7 10 9 10 9 5 6 6 6 5 5 4
16 9 4 4 4 11 9 10 6 9 3 5 5 7 8 2 1 3 8 13 11 9 7 7 6 6 6 6 5 7 8 7 7 9 8 11 10 10 9 8 7 6 5 4
7 5 2 4 2 3 8 9 3 2 6 4 4 4 6 6 9 7 9 13 9 8 8 6 6 6 4 4 5 6 6 8 7 9 8 10 12 10 8 8 8 7 6 6
4 6 3 4 5 7 3 4 3 6 5 7 3 8 10 15 17 20 14 8 10 10 9 7 6 5 6 6 7 6 7 9 8 10 10 13 11 9 8 8 6 6 6 6
1 5 6 6 3 1 2 7 7 6 5 1 3 7 2 6 8 8 10 12 9 10 9 7 7 7 7 7 7 7 7 9 8 9 12 12 10 9 9 7 6 6 7 6
6 1 4 4 3 1 4 4 4 5 4 8 7 7 1 3 5 10 14 10 11 10 9 8 8 7 7 7 6 7 7 8 8 10 12 11 10 9 8 7 6 5 6 6
11 4 7 14 9 7 5 4 4 6 5 5 7 4 5 6 7 8 10 12 13 13 14 11 8 8 7 6 7 7 7 8 8 9 10 10 9 8 7 7 6 6 5 6
6 6 5 13 9 14 7 18 13 12 16 13 13 11 12 10 11 12 9 12 14 14 14 14 13 10 8 9 8 8 8 8 8 10 9 8 7 7 7 7 6 5 5 5
3 5 5 1 2 10 11 12 10 14 3 9 5 8 8 2 7 9 13 15 16 16 15 15 13 13 13 13 12 11 10 9 9 9 9 7 7 7 6 7 6 5 5 5
8 6 4 4 2 4 2 12 17 19 8 16 10 15 6 4 8 11 12 16 19 20 18 19 18 16 15 15 14 13 12 10 8 9 7 7 7 7 6 6 6 5 5 3
6 8 3 3 3 2 9 4 14 19 15 13 4 6 9 9 15 10 14 20 20 18 18 19 17 16 16 14 13 11 10 10 10 9 8 7 7 6 6 6 5 4 3 4
4 4 3 6 4 6 6 8 9 10 13 12 19 18 7 2 4 5 11 14 18 21 23 21 19 17 16 16 13 14 11 10 9 9 8 7 6 6 6 5 4 3 3 0
0 2 5 2 6 14 3 7 9 7 11 10 15 13 9 7 5 11 13 18 18 15 13 15 16 15 17 16 16 16 14 12 11 9 8 6 5 5 6 5 4 2 1 1
9 2 9 5 5 8 8 5 6 7 11 5 10 10 12 10 14 5 9 12 13 12 15 14 18 18 18 17 17 16 14 13 8 7 6 6 5 5 5 4 2 2 1 3
10 9 5 4 5 16 6 4 11 7 3 2 3 8 11 13 1 1 4 6 11 13 14 18 17 15 15 17 17 15 14 9 9 8 7 6 5 3 4 4 2 2 3 1
3 8 9 15 11 3 3 1 3 4 2 1 2 2 3 6 6 2 4 6 7 11 12 13 15 14 12 15 17 17 10 12 11 9 7 5 5 5 3 3 3 1 1 1
3 1 4 4 3 4 1 3 2 3 3 4 3 2 1 4 5 5 4 5 6 7 11 10 15 16 15 11 11 12 13 11 11 9 7 6 6 5 3 2 2 3 2 1
3 5 5 5 4 2 1 2 2 2 2 2 3 3 4 4 5 4 4 4 5 6 5 10 12 13 13 11 12 11 11 11 9 8 7 6 4 4 3 2 0 1 1 2
4 5 5 4 3 3 3 3 3 2 3 2 2 3 2 1 4 4 4 4 6 8 6 8 9 13 11 12 12 10 8 9 10 8 5 5 4 3 2 2 2 7 5 8
Wind_Direction
170 154 187 187 206 261 174 133 143 223 191 121 197 203 204 186 191 200 213 209 208 213 217 199 196 193 182 174 173 179 176 179 163 150 155 167 193 185 192 194 198 201 205 219
135 211 190 181 286 287 267 168 177 12 79 140 167 232 216 196 217 197 203 211 210 196 203 200 191 180 183 177 181 179 182 175 178 170 163 145 152 173 175 185 198 204 208 219
179 202 177 187 254 284 244 191 177 158 127 30 114 294 213 240 238 217 230 218 204 199 197 195 182 183 166 175 176 181 181 179 181 169 139 98 90 83 142 177 184 214 215 219
231 168 177 167 217 222 251 189 172 144 131 184 162 246 233 214 219 211 220 209 205 193 173 170 165 162 167 168 150 172 172 177 176 164 167 162 175 166 191 181 185 201 208 228
183 195 171 186 205 203 248 148 158 159 123 121 230 118 263 138 226 220 219 209 203 192 168 168 171 158 150 145 172 181 177 177 173 172 177 183 187 160 142 165 179 178 158 148
231 186 183 199 218 226 221 102 59 60 106 229 204 155 255 192 201 210 195 196 189 172 165 153 146 140 143 109 170 191 182 180 174 177 185 180 169 146 138 150 117 98 77 55
220 210 219 174 215 167 194 155 113 196 209 207 60 166 235 235 237 208 189 187 179 165 170 164 161 160 145 164 179 182 170 157 171 172 169 147 141 145 134 128 123 115 89 56
176 199 179 167 198 193 205 190 159 178 198 175 132 228 241 224 301 272 194 155 152 168 173 168 165 162 157 149 154 141 148 118 127 128 131 113 107 104 93 96 102 95 98 84
187 208 132 151 162 178 200 200 160 99 6 79 207 277 304 206 351 144 149 155 169 173 167 162 161 171 157 153 140 133 121 104 98 106 115 116 111 97 105 101 97 100 94 90
192 134 6 104 167 211 189 163 114 35 142 219 265 271 227 224 219 186 182 186 166 152 154 164 159 158 137 138 117 105 105 116 115 108 107 101 102 101 101 100 100 95 96 90
181 131 283 66 205 178 159 177 77 114 143 163 152 253 209 208 198 191 190 176 168 162 165 166 160 152 136 125 122 115 110 112 100 100 103 100 97 96 90 97 93 93 94 90
176 99 145 189 242 236 314 190 156 171 212 115 149 274 172 224 201 166 167 173 173 165 158 159 154 152 145 137 128 120 109 108 102 104 103 101 102 105 105 102 104 108 102 91
179 81 95 68 330 5 211 224 160 109 87 194 149 255 154 254 226 190 172 165 161 153 152 163 157 162 155 142 127 119 119 114 112 115 116 116 115 109 106 106 105 100 102 87
131 171 178 205 207 128 192 198 188 164 184 160 216 223 235 214 204 177 169 165 161 170 175 170 161 164 158 142 137 133 121 124 122 117 118 120 124 126 127 122 114 106 103 99
131 193 193 218 192 190 190 198 190 196 213 195 218 201 237 203 195 193 161 156 168 181 180 177 175 168 157 152 148 144 137 136 132 126 127 133 123 116 112 113 121 120 104 96
171 215 147 50 337 182 206 208 193 225 205 247 139 237 230 113 118 168 184 173 182 188 185 180 177 172 174 170 163 155 150 146 141 137 134 135 128 127 129 129 133 116 99 86
157 124 98 235 2 106 348 204 197 215 197 208 192 219 153 181 200 189 175 186 193 192 187 186 182 180 179 174 164 162 160 148 137 139 141 139 139 137 139 134 123 108 95 77
137 129 91 158 39 155 238 257 196 207 219 208 228 180 184 197 213 198 193 192 199 191 185 187 185 181 177 165 165 150 146 145 147 149 151 149 146 142 137 121 114 107 84 54
118 113 109 145 189 296 261 237 168 165 244 201 216 224 206 155 93 265 196 206 204 194 193 192 182 174 165 164 153 143 150 152 150 159 159 158 152 142 134 124 109 82 79 56
34 129 103 113 166 229 176 195 156 104 269 198 195 212 167 142 206 241 191 198 209 202 188 179 172 165 160 162 153 155 161 159 166 165 159 143 132 131 122 118 135 125 98 251
185 115 197 224 265 288 250 175 142 124 246 208 184 183 165 192 217 235 180 206 203 186 174 158 165 170 166 156 155 160 159 171 152 124 121 122 124 128 124 122 111 124 75 21
156 156 173 117 233 259 158 20 168 226 22 132 164 177 182 220 286 105 222 197 159 158 150 161 162 168 159 157 155 157 164 133 124 124 123 117 110 104 104 103 83 63 71 119
163 176 172 186 207 221 211 352 45 19 64 75 68 46 192 227 248 202 220 177 177 163 161 164 159 148 153 160 160 155 148 138 134 128 127 122 115 97 105 110 96 93 42 38
277 198 183 111 263 169 215 319 71 65 35 345 357 355 223 229 223 218 177 165 148 148 156 152 147 154 150 149 144 137 138 134 135 133 133 131 122 115 91 96 139 147 185 107
182 129 161 280 297 315 44 272 282 19 7 345 339 336 289 218 225 203 178 158 142 137 120 150 156 152 142 127 115 124 130 136 133 128 130 127 128 136 112 90 212 345 293 150
189 172 175 213 194 123 252 281 122 54 21 17 310 318 359 283 209 152 157 154 145 139 131 126 131 133 131 123 123 121 127 137 136 133 141 157 146 126 131 134 36 20 28 2